Location: Newark
(25.4297°S, 49.2719°W)
Time: 00:57:31
(UTC+00:00)

Vanguard 1 Rocket - Pass Details

Date: 26 November 2019
Orbit: 650 x 4226 km, 34.3° (Epoch: 05 December)

Event Time Altitude Azimuth Distance (km) Brightness Sun altitude
Rises 17:36:19 0° 269° (W) 6,651 12.4 54.9°
Reaches altitude 10° 17:40:08 10° 266° (W) 6,011 12.4 54.1°
Maximum altitude 18:01:59 68° 183° (S) 4,334 11.7 49.1°
Drops below altitude 10° 18:28:00 10° 100° (E) 6,927 11.5 43.3°
Sets 18:32:51 0° 97° (E) 7,645 11.7 42.2°
